AirNav   Everest Fuels
 
 389 users online  

39P Strom Field Airport
Morton, Washington, USA

GOING TO MORTON?


FAA INFORMATION EFFECTIVE 21 MAY 2020

Location

FAA Identifier: 39P
Lat/Long: 46-33-01.2990N 122-15-59.8530W
46-33.021650N 122-15.997550W
46.5503608,-122.2666258
(estimated)
Elevation: 941 ft. / 287 m (estimated)
Variation: 20E (1985)
Time zone: UTC -7 (UTC -8 during Standard Time)
Zip code: 98356

Airport Operations

Airport use: Open to the public
Activation date: 08/1964
Control tower: no
ARTCC: SEATTLE CENTER
FSS: SEATTLE FLIGHT SERVICE STATION
NOTAMs facility: SEA (NOTAM-D service available)
Attendance: UNATNDD
Wind indicator: lighted
Segmented circle: no
Lights: ACTVT MIRL RY 07/25 - CTAF.
Beacon: white-green (lighted land airport)
ACTVT ROTG BCN - CTAF.

Airport Communications

CTAF: 122.9

Nearby radio navigation aids

VOR radial/distance  VOR name  Freq  Var
OLMr115/36.3OLYMPIA VORTAC113.4019E
TCMr152/36.8MCCHORD VORTAC109.6015E

Airport Services

Parking: tiedowns
Airframe service: NONE
Powerplant service: NONE

Runway Information

Runway 7/25

Dimensions: 1810 x 40 ft. / 552 x 12 m
Surface: asphalt, in fair condition
Runway edge lights: medium intensity
Runway edge markings: MARKINGS FADED.
RUNWAY 7  RUNWAY 25
Latitude: 46-33.022283N46-33.021000N
Longitude: 122-16.213367W122-15.781733W
Traffic pattern: leftleft
Runway heading: 070 magnetic, 090 true250 magnetic, 270 true
Displaced threshold: 200 ft.no
Markings: basic, in poor conditionbasic, in poor condition
Obstructions: 50 ft. pline, 324 ft. from runway, 2:1 slope to clear
+3 FT FENCE AT 35 FT FM THLD AND 32 FT R; GUARD RAIL AND ROAD 98 FT FM THLD; 15 FT SIGN, 18 FT R, 65 FT FM THLD; TREE, 51 FT HIGH, 2 FT R, 120 FT FM THLD.
41 ft. trees, 1318 ft. from runway, 40 ft. both sides of centerline, 27:1 slope to clear
RWY 25 +2 FT ROAD AND GUARD RAIL AT 15 FT FM THLD, TREE, 15 FT HIGH, 49 FT R, 74 FT FM THLD, POLE, 8 FT HIGH, 79 FT R, 8 FT FM THLD.

Airport Ownership and Management from official FAA records

Ownership: Publicly-owned
Owner: CITY OF MORTON
PO BOX 1089
MORTON, WA 98356
Phone 360-496-6881
Manager: ANDERS PULLMAN
PO BOX 1089, PO BOX 1089
MORTON, WA 98356
Phone (360) 496-5210
PUB. WKS. SUP.

Airport Operational Statistics

Aircraft based on the field: 6
Single engine airplanes: 4
Ultralights: 2
    
Aircraft operations: avg 22/day *
82% transient general aviation
18% local general aviation
<1% military
* for 12-month period ending 31 December 2017

Additional Remarks

TREES NEAR RWY.
TREES, STREAM, AND BRUSH IN PRIM SFC.
DEER AND ELK ON & INVOF RWY.
DITCH PARL RWY ON EASTSIDE.
FOR CD CTC SEATTLE ARTCC AT 253-351-3694.

Instrument Procedures

There are no published instrument procedures at 39P.

Some nearby airports with instrument procedures:

KTDO - Ed Carlson Memorial Field - South Lewis Co Airport (23 nm W)
KCLS - Chehalis-Centralia Airport (30 nm W)
KPLU - Pierce County Airport - Thun Field (33 nm N)
KGRF - Gray Army Airfield (Joint Base Lewis-McChord) (34 nm N)
KOLM - Olympia Regional Airport (36 nm NW)
 
Loc | Ops | Rwys | IFR | FBO | Links
Com | Nav | Svcs | Stats | Notes
Area around 39P (Strom Field Airport)
 
Road maps at: MapQuest Bing Google
 
Aerial photo
WARNING: Photo may not be current or correct
Aerial photo of 39P (Strom Field Airport)
Photo taken 01-Sep-2012
looking west.

Do you have a better or more recent aerial photo of Strom Field Airport that you would like to share? If so, please send us your photo.

 
Sectional chart

 
Airport distance calculator
Flying to Strom Field Airport? Find the distance to fly.

From to 39P

Sunrise and sunset
Times for 07-Jun-2020
 Local
(UTC-7)
 Zulu
(UTC)
Morning civil twilight04:3911:39
Sunrise05:1712:17
Sunset20:5903:59
Evening civil twilight21:3804:38

Current date and time
Zulu (UTC)  07-Jun-2020 10:03:40
Local (UTC-7)  07-Jun-2020 03:03:40
 
METAR
KCLS 
30nm W 
070955Z AUTO 00000KT 10SM OVC050 09/09 A2992 RMK AO2
KPLU 
33nm N 
070955Z AUTO 21003KT 10SM OVC046 10/08 A2990 RMK AO2
KGRF 
33nm N 
070858Z AUTO 14007KT 10SM BKN050 BKN065 08/08 A2988 RMK AO2 SLP123 T00810081 52009 $
KTCM 
35nm N 
070958Z AUTO 18003KT 10SM OVC045 09/07 A2990 RMK AO2 SLP129 T00900071 $
KOLM 
36nm NW 
070954Z AUTO 20006KT 10SM BKN060 08/07 A2990 RMK AO2 SLP126 T00830072
KKLS 
37nm SW 
070956Z AUTO 00000KT 10SM -RA BKN028 BKN055 OVC065 09/09 A2995 RMK AO2 RAB49 SLP144 P0000 T00940089
TAF
KGRF 
33nm N 
070506Z 0705/0811 VRB06KT 9999 SCT014 BKN050 QNH2985INS BECMG 0715/0716 23009KT 9000 -SHRA BKN020 QNH2998INS BECMG 0721/0722 23012KT 9000 -SHRA BKN022 QNH2999INS BECMG 0802/0803 23006KT 9999 NSW SCT035 QNH3002INS BECMG 0808/0809 21009KT 9999 BKN023 QNH3012INS TX15/0800Z TN08/0712Z
KTCM 
35nm N 
070500Z 0705/0811 VRB06KT 9999 BKN060 QNH2987INS BECMG 0715/0716 23009KT 9000 -SHRA BKN020 QNH2998INS TEMPO 0716/0720 BKN015 OVC030 BECMG 0804/0805 23006KT 9999 NSW SCT035 BKN050 QNH3002INS BECMG 0808/0809 21009KT 9999 BKN025 QNH3012INS TX15/0800Z TN08/0712Z
KOLM 
36nm NW 
070521Z 0706/0806 18006KT P6SM VCSH SCT070 BKN080 FM070700 21005KT P6SM VCSH OVC050 FM071200 20005KT P6SM VCSH SCT015 OVC025 FM072200 23011G17KT P6SM SCT020 BKN050
NOTAMs
Click for the latest NOTAMs
NOTAMs are issued by the DoD/FAA and will open in a separate window not controlled by AirNav.

 

 
 

Would you like to see your business listed on this page?

 If your business provides an interesting product or service to pilots, flight crews, aircraft, or users of the Strom Field Airport, you should consider listing it here.  To start the listing process, click on the button below
 
Add a business
 

Other Pages about Strom Field Airport

Update a link
 
Copyright © AirNav, LLC. All rights reserved. Privacy Policy  Contact